[[{"header":{"parameterUnit":"m.s-1","parameterCategory":1,"la1":30.2991,"la2":30.254,"lo1":-89.0895,"lo2":-89.0444,"dy":0.0017,"dx":0.0017,"nx":28,"ny":28,"refTime":"2024-11-27T09:00:00:Z","depth":0,"parameterNumber":2,"parameterNumberName":"U-component_of_WINDS"},"data":[0,0,0,0,0,0,0,0,0,0,0,0,0,0,0,0,0,0,0,0,0,0,0,0,0,0,0,0,0,0,0,0,0,0,0,0,0,0,0,0,0,0,0,0,0,0,0,0,0,0,0,0,0,0,0,0,0,0,-1.3496,-1.3497,0,-1.3507,-1.3507,-1.3507,-1.3466,-1.3464,-1.3463,-1.3462,-1.3474,-1.3475,-1.3477,0,0,0,0,0,0,0,0,0,0,0,0,0,-1.3441,-1.3443,-1.3496,-1.3497,-1.3497,-1.3507,-1.3507,-1.3507,-1.3466,-1.3464,-1.3463,-1.3461,-1.3473,-1.3475,-1.3477,0,0,0,0,0,0,0,0,0,0,0,0,0,-1.346,-1.3443,-1.3496,-1.3477,-1.3476,-1.3507,-1.3507,-1.3507,-1.3466,-1.3464,-1.3462,-1.3461,-1.3473,-1.3475,-1.3477,-1.3527,0,0,-1.3484,-1.3484,0,0,0,0,0,0,0,0,-1.3459,-1.3462,-1.348,-1.3479,-1.3477,-1.3483,-1.3492,-1.3514,-1.3467,-1.347,-1.3462,-1.346,-1.3478,-1.348,-1.3486,-1.3528,-1.3528,-1.3484,-1.3485,-1.3486,-1.3487,0,0,0,0,0,0,0,-1.3458,-1.3461,-1.3501,-1.348,-1.3478,-1.3468,-1.3469,-1.3496,-1.3484,-1.3469,-1.3466,-1.3468,-1.3477,-1.3484,-1.3486,-1.3528,-1.3484,-1.3486,-1.3487,-1.3488,-1.3611,-1.3613,0,0,0,0,0,0,-1.3459,-1.346,-1.35,-1.3501,-1.3463,-1.3471,-1.3471,-1.3483,-1.3484,-1.3482,-1.347,-1.3466,-1.3481,-1.3483,-1.3486,-1.3545,-1.3486,-1.3488,-1.3489,-1.3609,-1.3611,-1.3613,0,0,0,0,0,0,-1.3458,-1.3463,-1.35,-1.348,-1.3484,-1.3474,-1.3487,-1.3484,-1.3491,-1.3484,-1.3482,-1.3479,-1.348,-1.3483,-1.3517,-1.3544,-1.3489,-1.3491,-1.3606,-1.3609,-1.3612,-1.3662,0,0,0,0,0,0,-1.3456,-1.3463,-1.3482,-1.3481,-1.3485,-1.3531,-1.3489,-1.3486,-1.3495,-1.349,-1.3492,-1.3491,-1.3479,-1.3514,-1.3519,-1.3546,-1.3493,-1.3604,-1.3608,-1.3611,-1.3658,-1.3666,-1.3674,0,0,0,0,0,-1.3455,-1.3496,-1.3483,-1.3488,-1.3509,-1.3532,-1.3535,-1.352,-1.3497,-1.3516,-1.3511,-1.349,-1.354,-1.3518,-1.3523,-1.3552,-1.3602,-1.3607,-1.3611,-1.3654,-1.3665,-1.3673,0,0,0,0,0,0,-1.3501,-1.3495,-1.3481,-1.3523,-1.3528,-1.3525,-1.3549,-1.3531,-1.3544,-1.3539,-1.352,-1.3521,-1.3558,-1.3558,-1.3533,-1.36,-1.3567,-1.3573,-1.3599,-1.3608,-1.3616,-1.3615,-1.3494,0,0,0,0,0,-1.3516,-1.3536,-1.353,-1.3567,-1.3571,-1.3559,-1.3569,-1.3557,-1.3562,-1.3564,-1.3562,-1.3568,-1.3585,-1.3596,-1.3611,-1.3657,-1.3657,-1.3679,-1.3687,-1.3694,-1.3699,-1.3723,-1.3733,-1.3628,-1.3628,-1.3628,0,0,-1.3548,-1.3547,-1.3561,-1.3577,-1.3579,-1.36,-1.3562,-1.3585,-1.36,-1.3568,-1.36,-1.3598,-1.3603,-1.3643,-1.3661,-1.3644,-1.3728,-1.3699,-1.3705,-1.3706,-1.3728,-1.3738,-1.3747,-1.3631,-1.363,-1.363,0,0,-1.3616,-1.3618,-1.3649,-1.3652,-1.3656,-1.3648,-1.3656,-1.3655,-1.3652,-1.3684,-1.3659,-1.3677,-1.3707,-1.3711,-1.3717,-1.3785,-1.3767,-1.3791,-1.3832,-1.3855,-1.3864,-1.3871,-1.3895,-1.3904,-1.3796,-1.3796,-1.3796,0,-1.3655,-1.3685,-1.3667,-1.3692,-1.37,-1.367,-1.3702,-1.3706,-1.3715,-1.3721,-1.3702,-1.3738,-1.3739,-1.378,-1.3796,-1.3802,-1.381,-1.3791,-1.3864,-1.3871,-1.3877,-1.39,-1.3909,-1.3799,-1.3799,-1.3798,-1.3798,0,-1.3733,-1.3754,-1.3778,-1.3787,-1.3797,-1.3826,-1.3812,-1.3824,-1.3811,-1.3805,-1.3837,-1.3837,-1.3851,-1.386,-1.3848,-1.3898,-1.3888,-1.3867,-1.3834,-1.3891,-1.3912,-1.392,-1.3803,-1.3802,-1.3801,-1.3801,0,0,-1.3832,-1.3829,-1.3839,-1.3842,-1.3844,-1.386,-1.3886,-1.39,-1.3911,-1.3917,-1.3939,-1.3964,-1.3944,-1.3951,-1.3939,-1.3959,-1.4013,-1.3935,-1.3935,-1.395,-1.4068,-1.4085,-1.4095,-1.4,-1.4001,-1.4003,-1.4068,0,-1.3899,-1.3944,-1.3928,-1.3974,-1.3992,-1.3964,-1.3987,-1.399,-1.3985,-1.4,-1.3994,-1.4012,-1.3985,-1.3989,-1.4007,-1.4002,-1.4036,-1.3997,-1.402,-1.4021,-1.402,-1.4106,-1.4123,-1.4185,-1.4076,-1.4078,-1.4079,0,-1.3983,-1.3993,-1.404,-1.4038,-1.4045,-1.4066,-1.4076,-1.4091,-1.4094,-1.4089,-1.4096,-1.4079,-1.4105,-1.4071,-1.4106,-1.408,-1.4088,-1.4087,-1.4089,-1.4091,-1.4054,-1.4111,-1.4204,-1.4214,-1.4091,-1.409,-1.409,0,-1.4051,-1.4075,-1.4107,-1.411,-1.4108,-1.4124,-1.4123,-1.4125,-1.4133,-1.4142,-1.4148,-1.416,-1.4167,-1.4177,-1.4163,-1.414,-1.42,-1.4166,-1.4196,-1.4197,-1.4211,-1.421,-1.4308,-1.4216,-1.4216,-1.4215,-1.4215,0,-1.4127,-1.4158,-1.4137,-1.4156,-1.4189,-1.417,-1.4203,-1.42,-1.4201,-1.4219,-1.4195,-1.4213,-1.4194,-1.4209,-1.4199,-1.4229,-1.4232,-1.4229,-1.4226,-1.4231,-1.4232,-1.4237,-1.4232,-1.4218,-1.4217,-1.4217,-1.4216,0,-1.4209,-1.4196,-1.4229,-1.4223,-1.4223,-1.4247,-1.4243,-1.426,-1.4252,-1.4276,-1.428,-1.4268,-1.4286,-1.4273,-1.429,-1.4283,-1.4323,-1.4313,-1.4322,-1.4319,-1.4351,-1.4348,-1.4455,-1.4468,-1.4368,-1.4369,-1.4369,0,-1.4259,-1.4281,-1.4278,-1.4288,-1.4289,-1.4306,-1.4314,-1.4296,-1.4306,-1.4311,-1.4328,-1.4343,-1.4354,-1.4382,-1.4375,-1.4388,-1.4379,-1.4416,-1.4381,-1.4386,-1.438,-1.4379,-1.4381,-1.4423,-1.4424,-1.4425,-1.4426,0,-1.4349,-1.4341,-1.4354,-1.4364,-1.4375,-1.4382,-1.4388,-1.4398,-1.4379,-1.4391,-1.4408,-1.4417,-1.4433,-1.4449,-1.4459,-1.4459,-1.444,-1.4437,-1.4445,-1.4451,-1.4454,-1.4453,-1.4341,-1.4435,-1.4434,-1.4433,-1.4433,-1.4432,-1.4416,-1.4434,-1.4434,-1.4449,-1.4451,-1.4457,-1.4473,-1.4467,-1.448,-1.4492,-1.4481,-1.4501,-1.4502,-1.4514,-1.4516,-1.4532,-1.4516,-1.4528,-1.4531,-1.4534,-1.4538,-1.4452,-1.4533,-1.4533,-1.4533,-1.4533,-1.4532,0,-1.4505,-1.4503,-1.4517,-1.4525,-1.4536,-1.4516,-1.4521,-1.4532,-1.455,-1.4553,-1.4564,-1.4583,-1.4597,-1.4591,-1.4603,-1.4617,-1.4608,-1.4621,-1.462,-1.462,-1.4551,-1.4543,-1.4627,-1.4627,-1.4627,-1.4627,-1.4627,-1.4627,-1.4552,-1.4582,-1.4574,-1.4604,-1.4602,-1.4621,-1.4625,-1.463,-1.4632,-1.4654,-1.4666,-1.4661,-1.466,-1.4672,-1.4684,-1.4682,-1.4688,-1.4703,-1.4698,-1.4634,-1.4625,-1.4616,-1.4608,-1.4705,-1.4705,-1.4765,-1.4766,-1.4766]},{"header":{"parameterUnit":"m.s-1","parameterCategory":1,"la1":30.2991,"la2":30.254,"lo1":-89.0895,"lo2":-89.0444,"dy":0.0017,"dx":0.0017,"nx":28,"ny":28,"refTime":"2024-11-27T09:00:00:Z","depth":0,"parameterNumber":3,"parameterNumberName":"V-component_of_WINDS"},"data":[0,0,0,0,0,0,0,0,0,0,0,0,0,0,0,0,0,0,0,0,0,0,0,0,0,0,0,0,0,0,0,0,0,0,0,0,0,0,0,0,0,0,0,0,0,0,0,0,0,0,0,0,0,0,0,0,0,0,-6.9404,-6.9405,0,-6.9495,-6.9496,-6.9497,-6.9424,-6.9421,-6.9418,-6.9415,-6.9502,-6.9507,-6.9512,0,0,0,0,0,0,0,0,0,0,0,0,0,-6.9162,-6.9167,-6.9404,-6.9405,-6.9406,-6.9495,-6.9496,-6.9497,-6.9425,-6.9421,-6.9417,-6.9414,-6.95,-6.9506,-6.9513,0,0,0,0,0,0,0,0,0,0,0,0,0,-6.9261,-6.9169,-6.9404,-6.9381,-6.938,-6.9494,-6.9496,-6.9497,-6.9425,-6.9421,-6.9416,-6.9412,-6.9498,-6.9506,-6.9513,-6.9654,0,0,-6.9537,-6.9541,0,0,0,0,0,0,0,0,-6.9256,-6.927,-6.9383,-6.9383,-6.9382,-6.9444,-6.9442,-6.955,-6.9426,-6.9408,-6.9415,-6.9409,-6.9486,-6.9494,-6.9521,-6.9658,-6.9661,-6.9538,-6.9543,-6.9546,-6.9548,0,0,0,0,0,0,0,-6.9249,-6.9266,-6.944,-6.9385,-6.9384,-6.9364,-6.9373,-6.9462,-6.9471,-6.9409,-6.9404,-6.9416,-6.9484,-6.9514,-6.9523,-6.9663,-6.9538,-6.9545,-6.9549,-6.9552,-6.9919,-6.9923,0,0,0,0,0,0,-6.9245,-6.9261,-6.9437,-6.9442,-6.9306,-6.9372,-6.9382,-6.9428,-6.947,-6.9472,-6.942,-6.9412,-6.9503,-6.9514,-6.9526,-6.9693,-6.9546,-6.9553,-6.9558,-6.9914,-6.992,-6.9925,0,0,0,0,0,0,-6.924,-6.9262,-6.9433,-6.935,-6.9371,-6.9381,-6.9433,-6.9432,-6.9462,-6.9479,-6.9479,-6.9449,-6.95,-6.9515,-6.9623,-6.9695,-6.9557,-6.9564,-6.9908,-6.9915,-6.9922,-7.0028,0,0,0,0,0,0,-6.9234,-6.926,-6.9315,-6.9352,-6.9375,-6.9531,-6.9438,-6.9437,-6.9476,-6.9467,-6.9506,-6.9508,-6.9497,-6.9612,-6.9631,-6.9703,-6.957,-6.9901,-6.9911,-6.992,-7.0018,-7.0038,-7.0055,0,0,0,0,0,-6.9225,-6.934,-6.9318,-6.934,-6.9444,-6.9535,-6.9548,-6.9536,-6.9482,-6.9537,-6.9547,-6.9506,-6.9684,-6.9623,-6.9644,-6.972,-6.9897,-6.9908,-6.9919,-7.001,-7.0034,-7.0055,0,0,0,0,0,0,-6.9308,-6.9344,-6.9321,-6.9451,-6.9491,-6.9523,-6.9591,-6.9562,-6.9616,-6.9605,-6.9585,-6.9595,-6.9709,-6.9725,-6.9657,-6.9858,-6.9781,-6.9797,-6.9843,-6.9866,-6.9885,-6.9878,-6.9576,0,0,0,0,0,-6.9342,-6.9415,-6.9441,-6.9554,-6.9575,-6.958,-6.9619,-6.9606,-6.9646,-6.9662,-6.968,-6.9719,-6.9783,-6.9825,-6.9885,-7.002,-7.0027,-7.0082,-7.0101,-7.0116,-7.013,-7.0202,-7.0227,-6.9963,-6.9963,-6.9962,0,0,-6.9412,-6.9441,-6.9487,-6.9571,-6.9601,-6.9675,-6.9594,-6.9676,-6.973,-6.9673,-6.9777,-6.9792,-6.9834,-6.9956,-7.0011,-6.9973,-7.0205,-7.0131,-7.0143,-7.0149,-7.0217,-7.0242,-7.0264,-6.997,-6.9969,-6.9968,0,0,-6.9577,-6.9607,-6.9704,-6.9736,-6.9782,-6.9785,-6.9808,-6.9845,-6.9853,-6.9958,-6.9917,-6.998,-7.0091,-7.0123,-7.0153,-7.0332,-7.0296,-7.0352,-7.0449,-7.052,-7.054,-7.0559,-7.0622,-7.0645,-7.0366,-7.0366,-7.0366,0,-6.9658,-6.977,-6.9757,-6.9842,-6.988,-6.9834,-6.9931,-6.9962,-7.0025,-7.0051,-7.0008,-7.0148,-7.0172,-7.0301,-7.0345,-7.0371,-7.0396,-7.0347,-7.0539,-7.0557,-7.0574,-7.0634,-7.0658,-7.0372,-7.0372,-7.0371,-7.037,0,-6.9866,-6.9945,-7.0017,-7.0082,-7.0127,-7.0218,-7.0217,-7.0265,-7.0248,-7.0255,-7.0361,-7.039,-7.0455,-7.0484,-7.0468,-7.0611,-7.0586,-7.0542,-7.0465,-7.0606,-7.0662,-7.0685,-7.0382,-7.0379,-7.0377,-7.0376,0,0,-7.0085,-7.0143,-7.017,-7.0199,-7.0247,-7.0307,-7.0395,-7.0461,-7.0502,-7.0547,-7.0619,-7.0715,-7.0675,-7.071,-7.0696,-7.0758,-7.0898,-7.0706,-7.0706,-7.074,-7.1057,-7.109,-7.1117,-7.0875,-7.0879,-7.0882,-7.1053,0,-7.0253,-7.0409,-7.04,-7.0546,-7.0618,-7.0576,-7.0653,-7.069,-7.0698,-7.0759,-7.0767,-7.0836,-7.0777,-7.0798,-7.0858,-7.0868,-7.0961,-7.0856,-7.094,-7.0944,-7.0931,-7.1146,-7.1182,-7.1341,-7.1075,-7.1079,-7.1081,0,-7.0469,-7.0524,-7.0678,-7.0717,-7.0746,-7.0816,-7.0876,-7.0935,-7.0976,-7.0977,-7.1017,-7.0994,-7.1081,-7.1003,-7.1123,-7.1051,-7.1085,-7.1096,-7.1102,-7.1109,-7.1021,-7.1159,-7.1392,-7.1416,-7.1116,-7.1113,-7.1111,0,-7.0613,-7.0726,-7.0833,-7.0859,-7.0906,-7.0956,-7.0978,-7.1014,-7.1055,-7.1106,-7.1132,-7.1193,-7.1226,-7.1272,-7.1265,-7.1209,-7.1387,-7.1308,-7.1389,-7.139,-7.1428,-7.1426,-7.167,-7.1451,-7.1451,-7.145,-7.145,0,-7.0801,-7.0897,-7.0898,-7.0964,-7.107,-7.1058,-7.1162,-7.1178,-7.1211,-7.1278,-7.1244,-7.1307,-7.1294,-7.1356,-7.1351,-7.145,-7.1465,-7.1468,-7.1465,-7.1471,-7.1471,-7.1493,-7.1481,-7.1457,-7.1455,-7.1454,-7.1453,0,-7.098,-7.0985,-7.1099,-7.1135,-7.1147,-7.1223,-7.1253,-7.1314,-7.1321,-7.1405,-7.1424,-7.1434,-7.1505,-7.1503,-7.1583,-7.158,-7.1702,-7.1687,-7.169,-7.1686,-7.1768,-7.176,-7.2035,-7.207,-7.1828,-7.1831,-7.1833,0,-7.1099,-7.1172,-7.1217,-7.1261,-7.1287,-7.1357,-7.1399,-7.139,-7.1434,-7.1487,-7.1541,-7.161,-7.1665,-7.1781,-7.1793,-7.1855,-7.184,-7.1932,-7.1849,-7.1852,-7.1841,-7.1837,-7.1844,-7.1948,-7.1951,-7.1953,-7.1955,0,-7.131,-7.131,-7.1372,-7.1437,-7.1489,-7.1538,-7.1583,-7.162,-7.1616,-7.1667,-7.1741,-7.1784,-7.1867,-7.1936,-7.1995,-7.2014,-7.1984,-7.1981,-7.2003,-7.2009,-7.2008,-7.201,-7.1734,-7.1975,-7.1973,-7.1971,-7.197,-7.1969,-7.1463,-7.1526,-7.1568,-7.1639,-7.1673,-7.1717,-7.1777,-7.1792,-7.1854,-7.1923,-7.1913,-7.1996,-7.2034,-7.211,-7.2136,-7.2199,-7.2166,-7.2198,-7.2206,-7.2214,-7.2224,-7.1999,-7.221,-7.2209,-7.2209,-7.2208,-7.2208,0,-7.1672,-7.1698,-7.1763,-7.183,-7.1885,-7.1854,-7.1903,-7.1951,-7.2025,-7.2065,-7.212,-7.2205,-7.2271,-7.229,-7.2353,-7.24,-7.2388,-7.2417,-7.2413,-7.2418,-7.2249,-7.2224,-7.2426,-7.2426,-7.2426,-7.2426,-7.2426,-7.2426,-7.1787,-7.1893,-7.1898,-7.2019,-7.2043,-7.2126,-7.2157,-7.2196,-7.2228,-7.2325,-7.2381,-7.2394,-7.2425,-7.249,-7.2549,-7.2553,-7.2577,-7.2613,-7.2611,-7.2452,-7.243,-7.2409,-7.2385,-7.2618,-7.2619,-7.2774,-7.2776,-7.2777]}]]